Lapse_Rate
7.6 7.8 7.8 7.6 7.5 8.7 9.6 9.0 8.7 8.4 8.2 8.0 8.0 8.5 8.3 8.4 8.3 8.0 7.9 8.0 7.9 8.1 8.1 8.0 7.9 7.7 7.4 7.3 7.1 6.8 6.9 6.9 6.9 6.8 6.8 6.8 6.8 6.7 6.6 6.5 6.5 6.4 6.3 6.3 6.3 6.3 6.3 6.3 6.3
7.6 7.7 7.8 7.4 8.1 9.8 9.5 8.8 9.4 8.4 7.8 7.7 7.9 8.1 8.3 8.3 7.7 7.8 8.0 8.0 7.8 7.9 8.1 7.8 7.8 7.4 7.3 7.1 7.1 6.8 6.8 6.8 6.9 6.8 6.7 6.8 6.8 6.7 6.6 6.6 6.5 6.4 6.4 6.3 6.4 6.4 6.3 6.3 6.3
7.2 7.6 7.2 8.4 9.5 9.5 9.4 8.6 8.3 7.9 7.6 7.8 8.0 7.8 7.9 7.6 7.5 7.5 7.7 7.6 7.7 7.7 7.9 7.6 7.5 7.2 7.1 7.0 7.0 6.8 6.7 6.8 6.8 6.8 6.8 6.8 6.7 6.7 6.6 6.6 6.6 6.6 6.5 6.4 6.3 6.3 6.2 6.3 6.3
7.1 7.4 8.0 8.6 9.6 8.8 8.9 8.5 8.4 8.1 7.9 7.9 7.9 8.1 7.5 7.6 7.3 7.6 7.7 7.7 7.5 7.5 7.6 7.4 7.2 7.0 7.0 6.8 6.9 7.0 6.8 6.8 6.8 6.8 6.8 6.8 6.8 6.8 6.7 6.6 6.7 6.7 6.6 6.5 6.3 6.2 6.2 6.3 6.3
7.4 7.1 8.8 9.6 9.4 8.4 8.5 8.3 8.3 8.7 8.5 8.3 8.0 8.2 7.8 7.7 7.6 7.5 7.6 7.6 7.6 7.3 7.3 7.2 7.1 7.1 7.0 6.9 6.9 6.9 6.9 6.7 6.8 6.8 6.8 6.8 6.8 6.8 6.7 6.7 6.6 6.5 6.5 6.4 6.4 6.3 6.3 6.4 6.3
6.9 7.9 9.3 9.6 9.4 8.5 8.4 8.3 8.5 8.7 8.7 8.4 8.2 8.2 7.7 7.7 7.7 7.6 7.5 7.6 7.7 7.5 7.3 7.2 7.0 7.0 6.9 6.8 6.8 6.8 6.9 6.8 6.7 6.8 6.8 6.7 6.7 6.7 6.8 6.7 6.6 6.5 6.5 6.5 6.4 6.4 6.4 6.3 6.4
6.7 8.3 9.4 9.5 9.2 8.6 8.3 8.2 8.6 8.8 8.7 9.0 8.1 8.5 7.8 7.7 7.6 7.5 7.5 7.5 7.7 7.6 7.6 7.5 7.1 7.0 6.9 6.8 6.8 6.7 6.7 6.7 6.7 6.7 6.7 6.7 6.6 6.6 6.7 6.7 6.7 6.6 6.5 6.5 6.5 6.4 6.4 6.3 6.3
6.9 7.8 9.0 9.5 9.5 9.3 8.3 8.3 8.3 8.7 9.4 8.5 8.2 9.3 8.3 7.5 7.7 7.5 7.5 7.4 7.4 7.5 7.6 7.6 7.4 7.2 7.0 6.9 6.9 6.8 6.7 6.7 6.6 6.6 6.6 6.6 6.6 6.6 6.6 6.6 6.6 6.6 6.6 6.5 6.4 6.5 6.5 6.4 6.4
7.2 7.6 9.5 9.6 8.9 9.3 8.3 8.5 8.4 8.5 8.7 8.4 8.3 8.3 7.8 7.8 7.6 7.7 7.6 7.4 7.3 7.4 7.6 7.6 7.2 7.2 7.1 7.0 6.9 6.8 6.7 6.7 6.7 6.6 6.5 6.6 6.5 6.5 6.5 6.4 6.5 6.5 6.5 6.6 6.6 6.5 6.5 6.4 6.5
6.7 7.7 9.5 8.4 8.0 8.0 8.1 8.4 8.6 8.7 8.9 8.6 8.3 8.0 8.0 8.0 7.9 7.7 7.7 7.7 7.5 7.4 7.3 7.4 7.2 7.1 7.0 6.9 6.9 6.8 6.8 6.8 6.7 6.6 6.5 6.5 6.6 6.5 6.4 6.4 6.4 6.5 6.5 6.5 6.6 6.6 6.6 6.5 6.4
6.8 7.2 7.5 7.6 7.5 7.2 7.7 8.1 8.4 8.6 9.3 9.6 9.2 8.9 8.3 8.1 7.9 7.8 7.7 7.7 7.7 7.6 7.3 7.2 7.1 7.0 7.0 6.9 6.9 6.9 6.9 6.9 6.9 6.9 6.7 6.5 6.5 6.5 6.4 6.4 6.4 6.5 6.5 6.5 6.5 6.6 6.6 6.7 6.6
6.2 6.7 6.9 7.2 7.2 7.2 7.5 7.9 7.8 8.0 8.5 8.9 8.3 8.3 8.2 8.2 8.2 8.1 7.4 7.1 7.5 7.6 7.6 7.3 7.2 7.2 7.1 7.0 6.9 6.8 6.8 6.8 6.8 6.8 6.7 6.6 6.6 6.6 6.4 6.4 6.5 6.5 6.6 6.5 6.6 6.6 6.6 6.6 6.6
6.3 6.5 6.7 6.7 6.7 7.2 7.2 7.5 7.6 7.8 8.2 8.3 8.3 8.2 8.1 7.8 7.9 7.8 7.6 7.7 7.2 7.5 7.4 7.4 7.3 7.3 7.2 7.0 7.0 6.9 6.9 6.9 6.8 6.7 6.7 6.5 6.5 6.5 6.5 6.6 6.5 6.6 6.5 6.7 6.6 6.6 6.7 6.7 6.7
6.6 6.4 6.5 6.6 6.7 6.9 7.1 7.4 7.2 7.7 7.9 7.7 7.9 8.2 8.3 8.2 8.1 8.0 7.8 7.9 7.6 7.2 7.4 7.3 7.3 7.3 7.3 7.2 7.1 7.0 6.9 6.8 6.8 6.8 6.8 6.7 6.7 6.7 6.7 6.7 6.7 6.6 6.6 6.6 6.7 6.7 6.8 6.8 6.8
6.6 6.8 7.0 7.3 7.1 6.9 6.8 7.5 7.4 7.3 7.3 7.5 7.7 7.7 7.9 8.1 8.4 8.2 8.2 8.0 7.7 7.5 7.2 7.5 7.3 7.2 7.2 7.2 7.1 7.1 6.9 6.8 6.8 6.7 6.8 6.9 6.8 6.9 6.8 6.8 6.8 6.8 6.7 6.7 6.6 6.8 6.9 6.9 6.9
6.8 7.3 7.8 8.0 7.4 7.2 7.0 7.9 8.3 7.6 7.1 7.3 7.4 7.6 7.8 7.9 8.0 8.2 8.2 8.1 8.0 7.6 7.1 7.6 7.5 7.4 7.3 7.2 7.1 7.2 7.2 7.2 7.1 7.0 6.8 7.0 7.1 7.0 7.1 7.0 7.0 6.8 6.8 6.8 6.8 6.9 7.1 7.1 7.2
7.6 7.8 8.3 8.5 7.5 7.1 7.1 7.8 7.9 7.6 7.5 7.5 7.4 7.4 7.5 7.7 7.9 8.0 8.0 8.0 8.1 7.7 7.0 7.5 7.8 7.6 7.6 7.4 7.3 7.3 7.4 7.5 7.3 7.1 7.0 7.0 7.1 7.1 7.0 7.1 7.0 7.1 7.1 7.0 7.1 7.2 7.3 7.3 7.4
8.7 9.3 8.4 8.3 8.3 7.4 7.4 7.2 7.7 7.7 7.7 7.8 7.7 7.6 7.5 7.7 7.8 7.9 8.0 8.1 8.1 7.8 7.3 7.6 7.8 7.9 7.9 7.8 7.6 7.5 7.4 7.5 7.5 7.4 7.2 7.0 7.1 7.1 7.2 7.3 7.5 7.5 7.5 7.4 7.4 7.3 7.2 7.3 7.2
7.9 8.1 7.9 8.2 8.1 7.8 7.8 7.6 7.8 7.9 8.1 8.1 8.0 7.9 7.7 7.6 7.9 7.9 7.7 7.8 8.1 7.6 7.4 7.5 8.0 8.1 8.0 7.9 7.9 7.9 7.8 7.6 7.5 7.4 7.3 7.3 7.1 7.1 7.2 7.4 7.5 7.6 7.6 7.5 7.4 7.3 7.2 7.1 6.9
7.5 7.8 7.9 8.2 8.2 7.6 7.7 7.9 8.2 8.2 8.2 8.0 8.0 8.1 7.9 7.6 7.6 7.6 7.9 7.9 7.8 8.1 8.1 8.1 8.1 8.0 8.0 8.1 8.2 8.2 8.1 7.8 7.7 7.7 7.6 7.5 7.4 7.3 7.4 7.6 7.6 7.6 7.6 7.5 7.5 7.3 7.2 7.1 7.0
7.6 7.7 7.9 8.2 8.4 8.0 8.0 7.9 8.6 8.7 8.0 7.9 7.8 7.8 7.9 7.9 7.5 7.5 7.8 8.0 8.1 8.1 8.1 8.2 8.2 8.1 8.2 8.2 8.2 8.4 8.3 8.1 8.0 8.0 7.9 7.8 7.7 7.6 7.5 7.6 7.6 7.6 7.5 7.5 7.5 7.4 7.2 7.1 6.9
7.7 8.1 8.0 8.1 8.0 8.3 8.8 8.8 9.2 8.8 8.5 8.1 8.0 7.7 7.7 7.8 7.9 7.9 7.8 8.0 8.2 8.2 8.2 8.1 8.2 8.2 8.2 8.3 8.6 8.5 8.5 8.6 8.5 8.1 7.9 7.9 8.0 8.1 8.1 8.1 8.0 8.0 7.8 7.7 7.6 7.6 7.4 7.2 7.2
8.0 8.2 8.2 8.0 7.9 8.0 8.3 8.6 8.4 8.8 9.4 8.6 8.1 7.7 7.5 7.8 7.9 7.9 7.9 8.0 8.3 8.4 8.5 8.6 8.7 8.5 8.7 8.7 8.6 8.5 8.5 8.7 8.6 8.3 8.4 8.5 8.5 8.5 8.5 8.6 8.7 8.6 8.5 8.3 8.1 7.9 7.6 7.3 6.9
8.1 8.1 7.8 7.8 7.9 8.6 8.3 8.6 8.8 9.3 9.5 9.2 8.5 7.8 7.4 7.8 7.9 7.9 8.0 7.9 8.0 8.2 8.3 8.5 8.7 8.7 8.6 8.4 8.4 8.6 8.7 8.9 8.9 9.0 9.0 8.9 8.9 8.9 9.0 9.1 9.0 8.9 8.8 8.6 8.4 8.2 7.7 7.5 7.2
8.2 8.3 8.4 8.5 8.4 8.8 8.8 9.6 9.2 9.6 9.5 9.4 8.8 7.8 7.5 7.9 7.7 7.8 7.9 8.0 7.9 7.9 8.1 8.2 8.2 8.3 8.3 8.5 8.6 8.6 8.6 8.6 8.7 8.7 8.6 8.5 8.6 8.6 8.6 8.6 8.6 8.5 8.3 8.2 8.0 8.0 7.8 7.6 7.3
8.0 8.4 8.6 8.5 9.5 9.9 9.6 9.6 9.4 9.3 9.2 8.5 8.8 7.9 7.6 8.0 8.0 7.9 7.9 8.0 8.1 8.1 8.0 8.1 8.1 8.1 8.1 8.2 8.3 8.3 8.4 8.4 8.5 8.5 8.5 8.5 8.5 8.4 8.4 8.5 8.5 8.3 8.2 8.2 8.0 7.9 7.8 7.6 7.3
8.2 9.0 8.1 8.8 8.8 9.2 9.1 9.5 9.5 9.3 8.5 8.6 8.4 7.7 7.8 7.8 8.0 7.8 7.8 7.9 8.1 8.3 8.1 8.3 8.3 8.2 8.1 8.2 8.3 8.3 8.3 8.3 8.3 8.4 8.3 8.2 8.0 8.0 7.8 7.9 8.0 8.0 7.9 7.9 7.8 7.6 7.5 7.4 7.3
8.7 8.2 9.2 8.6 8.9 8.9 9.6 9.6 9.6 9.6 9.6 8.7 8.1 7.9 7.9 7.7 7.5 7.7 7.8 7.9 8.1 8.3 8.3 8.2 8.4 8.5 8.4 8.3 8.3 8.3 8.4 8.6 8.7 8.8 8.7 8.3 7.9 7.8 7.7 7.5 7.5 7.4 7.4 7.4 7.5 7.4 7.2 7.2 7.2
9.1 8.5 8.4 9.0 9.4 9.7 9.6 9.6 9.6 9.7 9.6 9.6 8.7 8.1 8.0 7.5 7.3 7.8 7.9 7.9 8.0 8.1 8.1 8.3 8.3 8.3 8.3 8.3 8.2 8.2 8.2 8.2 8.2 8.2 8.1 8.0 7.8 7.9 7.8 7.6 7.3 7.1 7.1 7.5 7.4 7.4 7.4 7.0 6.7
8.7 8.8 8.1 8.4 8.6 9.1 9.3 9.0 9.3 9.4 9.2 9.6 9.2 8.3 7.9 7.3 8.1 8.1 8.0 7.9 7.9 7.8 7.8 8.0 8.1 8.2 8.3 8.3 8.2 8.1 8.1 8.0 7.8 7.7 7.6 7.2 7.3 7.4 7.5 7.4 7.5 7.5 7.4 7.5 7.5 7.4 7.0 6.7 6.6
Wind_Speed
12 16 7 7 8 9 5 8 3 9 9 8 5 8 10 5 11 5 3 8 11 18 22 21 19 18 18 17 18 18 16 17 17 16 14 13 13 12 12 12 10 10 12 12 12 12 12 11 11
16 8 7 8 8 6 10 4 6 11 9 5 3 4 5 9 9 9 6 5 14 18 22 21 18 19 18 17 17 19 18 18 17 16 15 14 13 12 11 10 10 9 10 10 11 11 10 9 7
13 9 10 7 11 10 10 6 8 10 6 3 0 2 4 13 8 3 6 10 17 18 22 21 19 18 18 17 16 18 18 18 18 17 16 15 14 12 11 10 9 9 10 9 9 10 9 8 6
6 6 7 10 6 9 10 8 5 9 5 2 4 3 7 6 2 3 10 14 17 18 21 25 21 19 18 18 17 17 18 19 19 18 17 16 15 13 11 11 10 9 10 10 9 9 8 7 6
8 8 13 10 8 5 5 6 1 6 5 7 4 10 6 6 7 9 13 15 18 17 20 22 22 21 20 20 19 18 18 19 19 18 16 15 14 13 11 11 10 9 9 9 9 8 8 7 6
8 6 14 8 8 4 3 4 2 3 2 9 5 2 7 11 9 11 13 15 16 17 18 20 20 21 21 21 19 19 20 20 20 18 16 15 13 13 12 11 11 9 8 8 8 8 7 7 6
14 10 15 7 7 7 3 4 3 2 4 6 3 3 9 10 11 13 12 14 15 15 15 19 20 19 19 20 20 21 19 19 18 17 17 16 15 14 14 13 11 10 9 9 9 8 8 7 7
7 9 9 5 6 10 3 3 2 8 4 6 2 3 10 14 12 13 14 14 15 15 15 15 21 21 19 17 17 18 18 18 17 17 17 16 14 14 14 13 12 11 11 10 10 10 9 9 9
12 10 9 6 5 5 3 5 6 3 9 6 5 4 12 14 15 13 12 14 15 14 16 16 17 21 22 20 19 17 15 16 16 15 15 15 15 15 15 15 16 15 13 12 12 12 11 11 11
9 10 8 11 7 8 6 6 4 7 14 10 9 5 7 13 13 14 14 14 17 18 18 17 17 16 20 19 20 20 19 18 18 18 17 17 16 16 16 17 15 14 14 13 13 13 12 12 14
8 13 10 6 4 8 15 10 5 10 12 9 5 9 13 14 14 14 15 15 17 18 15 18 17 15 16 13 17 16 18 18 19 20 19 19 16 14 15 13 14 14 16 14 16 15 15 16 15
9 14 11 13 9 13 14 14 13 16 14 15 3 4 10 13 14 15 15 16 17 18 19 19 20 16 15 15 11 14 12 16 15 20 20 16 12 12 11 12 15 15 16 16 16 14 16 17 17
12 13 13 11 12 14 16 18 19 19 17 15 12 8 11 13 15 15 16 16 16 18 19 19 18 17 15 14 11 11 11 12 17 17 20 19 13 9 12 12 14 14 16 15 12 12 10 12 13
12 11 15 16 16 15 18 21 19 21 17 20 20 19 17 16 16 15 16 17 17 18 19 19 20 17 17 15 14 10 10 14 16 17 18 22 17 10 9 10 10 12 15 15 14 10 10 10 11
10 15 16 17 12 9 7 18 23 22 18 21 18 18 19 20 18 18 17 18 18 17 18 19 19 17 18 19 16 12 11 15 12 15 17 20 21 15 11 11 10 11 15 15 13 11 12 10 9
16 15 13 7 4 6 8 15 4 4 9 16 18 18 18 18 20 18 18 18 19 18 19 19 17 20 18 17 14 13 12 11 11 16 17 20 20 21 13 11 11 15 14 12 11 10 11 11 11
15 14 12 8 5 5 9 13 14 15 14 16 16 15 16 18 17 19 18 19 19 19 17 18 18 19 20 17 14 14 14 13 13 16 16 18 21 21 15 12 10 14 9 10 10 10 11 10 7
16 12 9 9 5 11 13 18 19 17 17 18 17 17 16 17 17 17 13 14 16 15 17 17 15 17 15 13 12 12 12 12 11 12 12 18 19 21 15 13 12 12 11 11 11 12 11 10 10
19 18 18 16 10 15 17 19 16 17 18 14 14 15 15 18 18 18 9 11 14 15 15 18 17 16 13 13 12 12 12 12 12 13 15 16 17 18 15 13 13 13 12 13 12 11 13 11 9
17 20 20 18 13 8 16 20 19 20 16 11 10 8 9 9 9 8 8 10 11 14 15 16 18 18 16 13 12 11 11 11 12 12 13 16 15 16 15 15 14 15 12 14 14 14 11 11 11
20 20 20 20 18 14 20 22 25 15 8 8 6 5 3 4 4 3 6 7 9 13 15 16 17 18 17 17 11 10 10 9 11 12 12 14 16 15 16 16 15 14 13 12 15 14 16 12 11
21 18 20 19 15 13 4 13 14 10 12 11 8 7 5 5 5 5 3 1 4 9 11 14 14 16 16 16 13 13 12 13 12 11 11 12 16 16 17 17 16 16 12 14 13 13 14 13 13
21 16 12 13 16 16 20 12 16 21 12 14 10 10 9 7 6 8 8 9 8 4 2 6 11 13 13 13 14 11 12 10 9 9 12 12 11 15 17 17 17 16 13 15 15 14 14 12 11
23 13 13 16 15 16 21 17 18 16 16 15 13 12 11 10 8 9 8 8 10 10 8 4 5 6 8 10 12 14 13 11 9 9 9 9 8 9 14 16 15 15 14 15 13 13 14 13 13
15 14 10 12 14 17 19 20 18 16 10 10 16 13 13 10 9 9 8 9 8 9 9 6 4 3 5 8 11 12 13 14 13 11 9 10 9 9 11 10 10 11 13 13 13 13 13 14 12
19 21 14 22 16 17 20 13 12 14 15 10 12 14 13 12 10 8 8 8 8 9 8 6 4 2 3 5 7 9 11 9 10 11 10 9 9 9 12 12 14 15 14 13 13 10 10 11 11
26 20 27 22 23 18 21 21 12 11 10 11 13 13 16 14 12 11 9 7 7 6 6 6 6 6 6 7 7 7 8 11 11 12 10 8 10 10 11 7 12 13 13 13 11 9 10 10 11
29 23 18 15 21 25 22 23 17 23 21 15 17 17 16 14 12 8 7 6 7 7 7 8 8 8 8 8 8 8 10 10 11 10 11 11 11 11 11 10 6 9 12 12 13 12 12 12 9
18 20 25 20 15 19 18 18 20 15 10 14 20 18 15 12 9 7 6 6 8 8 10 11 12 13 11 10 10 10 9 10 10 10 11 11 10 9 5 9 11 11 10 10 11 11 11 11 10
24 22 27 17 26 16 19 19 20 16 11 11 15 18 13 11 9 7 6 7 8 9 11 12 11 12 12 11 11 11 10 10 10 10 12 9 8 7 8 9 10 8 8 9 8 8 7 9 10
Wind_Direction
260 236 256 254 244 230 112 89 96 120 116 53 47 1 12 3 6 70 146 135 154 141 144 152 142 146 147 150 150 145 145 142 143 140 140 136 136 137 136 133 129 129 126 126 125 122 119 116 116
280 276 238 271 258 224 90 160 112 69 71 90 114 222 30 63 44 104 159 157 174 142 150 154 150 149 149 151 151 149 152 146 145 146 147 144 146 145 144 138 132 133 134 134 134 129 130 131 128
264 266 271 250 262 60 98 81 90 95 104 134 13 58 359 36 74 35 70 167 149 146 159 150 153 150 151 150 157 154 154 149 151 152 153 155 156 156 151 145 142 144 148 149 146 144 147 148 147
272 216 240 258 55 39 48 86 83 127 139 157 36 109 141 52 35 55 135 162 162 153 166 142 156 155 153 158 164 161 158 156 157 159 159 160 162 161 158 156 156 159 162 164 162 160 158 161 170
236 265 261 247 70 107 90 42 250 155 149 112 305 74 85 94 88 119 139 152 155 159 156 158 163 160 163 167 170 170 167 163 165 165 163 164 167 167 167 167 167 169 173 172 171 172 173 175 195
259 254 258 190 119 120 144 14 297 208 331 121 232 26 78 115 134 134 148 155 159 163 148 166 171 167 170 173 175 176 173 171 172 168 167 169 172 172 171 176 176 176 174 167 174 183 191 195 214
255 270 284 28 112 166 54 318 263 346 276 190 92 276 107 144 131 149 153 158 160 166 159 166 180 180 179 181 182 183 177 178 176 173 174 176 179 181 179 186 185 180 180 181 190 196 204 210 222
295 285 274 249 181 117 66 280 313 246 85 58 174 328 123 128 151 162 160 163 166 173 175 173 181 184 190 194 197 192 183 186 185 183 183 182 185 190 193 195 193 190 191 192 197 203 210 216 226
272 271 253 236 230 93 79 292 146 289 273 217 150 286 85 128 156 165 172 172 175 183 186 184 185 185 189 195 193 194 192 192 191 191 192 188 199 197 196 205 198 195 201 199 204 207 211 216 228
260 257 286 26 12 313 264 263 320 256 206 213 193 138 146 155 173 177 183 185 186 189 192 190 194 190 193 199 192 195 195 199 201 200 194 207 217 204 212 201 191 196 205 206 211 218 220 219 232
250 260 2 308 310 316 300 293 280 269 269 261 225 205 175 181 194 201 197 192 199 194 195 198 194 195 198 205 198 191 203 200 203 206 203 209 209 216 211 202 196 211 207 215 208 213 225 227 235
269 260 282 284 293 291 281 290 290 286 285 306 279 290 179 204 211 212 213 206 191 198 198 198 190 197 200 206 205 205 202 199 206 206 202 207 216 210 213 217 203 208 207 220 221 217 222 226 234
256 271 285 289 274 269 278 267 270 266 268 277 271 229 245 209 220 224 225 217 203 197 200 201 202 192 200 211 207 215 206 205 210 207 203 216 213 212 210 220 225 213 218 206 226 229 229 227 241
310 291 285 280 273 270 273 271 257 253 253 250 250 252 245 230 228 227 218 232 215 202 196 197 200 189 203 206 219 201 216 214 211 217 212 206 225 215 214 219 219 228 227 224 221 228 227 226 236
280 284 279 264 252 267 287 269 242 247 245 255 255 254 250 260 248 229 233 216 232 217 198 191 202 194 199 206 209 220 210 217 212 220 212 205 217 229 223 222 225 226 227 234 235 234 236 249 236
259 264 278 85 209 223 245 282 303 210 242 250 250 255 251 251 257 254 253 234 219 222 206 189 195 201 199 206 205 214 215 214 222 215 220 210 213 224 219 232 227 231 229 228 228 235 236 238 235
239 257 248 288 157 274 250 289 306 299 289 273 261 260 262 260 248 248 253 259 232 213 208 197 192 205 201 206 211 213 219 214 219 225 220 213 215 218 225 224 232 226 230 233 234 231 236 242 228
260 245 237 251 223 207 261 272 281 275 268 267 262 253 257 265 263 259 261 253 227 227 204 205 194 200 201 204 213 218 220 220 220 220 224 220 211 214 218 229 227 222 228 230 228 234 237 237 243
279 285 276 275 277 283 279 280 277 283 286 283 266 253 250 251 250 255 263 232 220 221 215 204 202 194 196 206 208 214 218 219 221 225 225 223 221 210 215 226 225 227 227 229 228 234 234 245 227
257 266 267 273 264 284 273 276 281 281 277 277 282 271 268 263 237 221 248 241 215 227 221 221 208 203 203 212 216 219 218 224 223 225 223 224 222 221 217 219 226 222 223 227 228 231 230 234 237
253 257 267 274 289 275 276 271 270 245 232 246 236 255 258 257 260 239 248 236 238 236 235 225 219 210 208 214 214 222 231 234 227 224 224 219 223 223 223 225 222 229 223 225 219 223 224 229 221
252 251 254 261 266 269 272 278 284 223 210 208 203 216 199 154 136 111 94 68 265 263 251 239 229 212 215 207 221 223 230 231 235 234 231 226 214 221 227 225 231 226 231 225 227 218 221 220 228
257 281 274 269 267 271 262 253 260 262 218 217 197 192 175 152 128 103 84 77 73 84 181 224 233 228 218 210 219 227 240 246 250 246 241 232 226 220 218 225 224 233 228 236 229 221 222 230 231
259 263 249 259 257 255 254 251 262 254 217 232 173 188 172 164 148 122 104 89 79 73 78 105 167 188 211 217 220 229 251 250 248 255 256 255 242 235 228 224 229 229 236 239 237 231 221 222 226
249 215 240 237 233 249 252 247 244 243 280 242 181 193 181 173 161 145 126 100 80 81 82 85 101 150 205 214 225 229 236 246 257 257 259 261 251 243 238 226 226 231 236 237 236 232 228 224 226
215 224 230 240 253 258 248 235 252 264 262 250 178 189 180 171 156 151 131 114 98 82 60 62 65 105 174 215 243 247 251 251 253 253 251 259 254 255 255 208 212 221 229 234 234 233 232 225 225
248 223 240 256 271 278 277 275 240 239 232 239 208 188 192 176 167 158 130 101 87 77 69 46 26 14 1 339 309 282 275 276 276 274 272 270 266 264 266 215 217 220 224 224 229 230 228 226 231
221 247 234 238 252 257 259 261 263 257 223 213 214 199 200 179 173 153 121 106 82 72 66 47 32 32 13 358 345 331 324 308 294 283 272 267 270 273 274 281 236 215 221 226 228 231 231 226 229
214 225 251 246 242 241 253 255 257 286 220 228 199 204 203 193 170 149 116 86 67 58 55 41 35 32 27 18 10 0 351 337 321 305 298 290 300 314 277 260 253 247 241 231 231 234 236 227 227
287 255 224 239 240 244 243 253 274 296 291 253 207 188 188 190 168 140 123 106 83 66 59 51 46 44 39 37 35 25 13 360 350 336 336 326 284 253 254 262 284 277 248 232 238 252 246 242 243